Regional Weather Roundup
Issued by NWS

Home | Current Version | Previous Version | Graphics & Text | Print | Product List | Glossary On
Versions: 1 2 3 4 5 6 7 8 9 10 11 12 13 14 15 16 17 18 19 20 21 22 23 24 25 26 27 28 29 30 31 32 33 34 35 36 37 38 39 40 41 42 43 44 45 46 47 48 49 50
000
ASUS43 KOAX 251310
RWRNE

WEATHER ROUNDUP FOR NEBRASKA
NATIONAL WEATHER SERVICE OMAHA NE
700 AM CST THU DEC 25 2014

NOTES: SATELLITE DATA IS BEING USED TO AUGMENT CLOUD COVER ABOVE
       12000 FEET.
       "FAIR" INDICATES FEW OR NO CLOUDS BELOW 12,000 FEET WITH NO
       SIGNIFICANT WEATHER AND/OR OBSTRUCTIONS TO VISIBILITY.

  * THESE STATIONS DO NOT REPORT WEATHER SUCH AS RAIN...SNOW OR FOG.

NEZ001>004-019>022-054>056-251400-
NEBRASKA PANHANDLE

CITY           SKY/WX    TMP DP  RH WIND       PRES   REMARKS
SCOTTSBLUFF    CLOUDY    37  30  75 N8        29.43R WCI  31
ALLIANCE       CLOUDY    32  25  75 N10       29.46R WCI  24
CHADRON        CLOUDY    30  26  85 N8        29.54R WCI  22
KIMBALL        CLOUDY    40  29  67 NE8       29.40R WCI  34
SIDNEY         CLOUDY    33  24  69 NE6       29.42R WCI  28
$$

NEZ057>060-069>072-079>082-251400-
SOUTHWEST NEBRASKA

CITY           SKY/WX    TMP DP  RH WIND       PRES   REMARKS
NORTH PLATTE   PTCLDY    25  20  81 E3        29.46R
IMPERIAL       MOCLDY    24  18  77 E6        29.40S WCI  17
LEXINGTON      PTCLDY    28  22  80 E5        29.48R WCI  22
MCCOOK         PTCLDY    24  20  84 NE6       29.43R WCI  17
OGALLALA       CLOUDY    22  21  96 CALM      29.42S
$$

NEZ005>010-023>029-035>040-094-251400-
NORTH CENTRAL NEBRASKA

CITY           SKY/WX    TMP DP  RH WIND       PRES   REMARKS
VALENTINE      CLOUDY    32  25  75 NE12      29.51R WCI  23
AINSWORTH      PTCLDY    30  26  83 NW8       29.48S WCI  23
BROKEN BOW     CLEAR     24  20  84 N5        29.48R WCI  18
O`NEILL        PTCLDY    29  27  91 S3        29.51R
ORD            PTCLDY    22  19  89 SE5       29.50S WCI  16
THEDFORD       PTCLDY    25  22  88 NW5       29.48R WCI  20
$$

NEZ041-046>049-061>064-073>077-083>087-251400-
SOUTH CENTRAL NEBRASKA

CITY           SKY/WX    TMP DP  RH WIND       PRES   REMARKS
GRAND ISLAND   MOCLDY    30  23  75 S7        29.54R WCI  23
AURORA         MOCLDY    31  24  76 S10       29.54R WCI  22
HASTINGS       PTCLDY    29  21  72 S8        29.52R WCI  21
HEBRON         MOCLDY    32  23  70 S12       29.57F WCI  23
HOLDREGE       MOCLDY    28  21  75 SE7       29.47F WCI  20
KEARNEY *      MOCLDY    27  19  74 CALM      29.51R
YORK           MOCLDY    32  25  74 S10       29.55F WCI  24
$$

NEZ011>018-030>034-042>045-251400-
NORTHEAST NEBRASKA

CITY           SKY/WX    TMP DP  RH WIND       PRES   REMARKS
NORFOLK        PTCLDY    30  23  75 SE3       29.55R
ALBION         PTCLDY    29  22  74 SE3       29.54R
BLAIR          CLOUDY    33  27  80 S12       29.61R WCI  24
COLUMBUS *     CLOUDY    32  21  64 S3        29.58S
FREMONT        CLOUDY    33  28  82 SE6       29.60F WCI  28
TEKAMAH        CLOUDY    31  27  85 SE8       29.62R WCI  23
WAYNE          CLOUDY    29  24  84 S3        29.57R
$$

NEZ050>053-065>068-078-088>093-251400-
SOUTHEAST NEBRASKA

CITY           SKY/WX    TMP DP  RH WIND       PRES   REMARKS
LINCOLN        CLOUDY    32  25  75 S8        29.62R WCI  25
OMAHA EPPLEY   CLOUDY    32  27  81 SE13      29.65S WCI  22
BEATRICE       PTCLDY    32  25  74 S10       29.62R WCI  24
FALLS CITY     MOCLDY    33  26  75 S14       29.69F WCI  23
NEBRASKA CITY  CLOUDY    32  25  76 S12G17    29.65S WCI  23
PLATTSMOUTH    CLOUDY    32  26  78 S13G18    29.64S WCI  22
$$

NEZ044-045-051>053-067-251400-
OMAHA AREA

CITY           SKY/WX    TMP DP  RH WIND       PRES   REMARKS
OMAHA EPPLEY   CLOUDY    32  27  81 SE13      29.65S WCI  22
BLAIR          CLOUDY    33  27  80 S12       29.61R WCI  24
FREMONT        CLOUDY    33  28  82 SE6       29.60F WCI  28
MILLARD        CLOUDY    32  27  82 SE8       29.63S WCI  25
OFFUTT AFB     CLOUDY    31  28  88 SE12      29.63F WCI  22
PLATTSMOUTH    CLOUDY    32  26  78 S13G18    29.64S WCI  22
WAHOO          FAIR      32  26  79 S9        29.60F WCI  24
$$



USA.gov is the U.S. government's official web portal to all federal, state and local government web resources and services.